Year,Month,Day,Hour,Minute,Value (Times are PST for temperature in C)
2014,07,10,00,00,15.90
2014,07,10,00,01,16.00
2014,07,10,00,02,16.00
2014,07,10,00,03,16.00
2014,07,10,00,04,16.00
2014,07,10,00,05,15.90
2014,07,10,00,06,15.90
2014,07,10,00,07,15.90
2014,07,10,00,08,15.90
2014,07,10,00,09,15.80
2014,07,10,00,10,15.80
2014,07,10,00,11,15.80
2014,07,10,00,12,15.80
2014,07,10,00,13,15.80
2014,07,10,00,14,15.80
2014,07,10,00,15,15.80
2014,07,10,00,16,15.80
2014,07,10,00,17,15.80
2014,07,10,00,18,15.80
2014,07,10,00,19,15.70
2014,07,10,00,20,15.70
2014,07,10,00,21,15.70
2014,07,10,00,22,15.70
2014,07,10,00,23,15.60
2014,07,10,00,24,15.60
2014,07,10,00,25,15.60
2014,07,10,00,26,15.60
2014,07,10,00,27,15.60
2014,07,10,00,28,15.60
2014,07,10,00,29,15.60
2014,07,10,00,30,15.60
2014,07,10,00,31,15.60
2014,07,10,00,32,15.60
2014,07,10,00,33,15.70
2014,07,10,00,34,15.70
2014,07,10,00,35,15.70
2014,07,10,00,36,15.70
2014,07,10,00,37,15.70
2014,07,10,00,38,15.70
2014,07,10,00,39,15.70
2014,07,10,00,40,15.70
2014,07,10,00,41,15.80
2014,07,10,00,42,15.80
2014,07,10,00,43,15.80
2014,07,10,00,44,15.80
2014,07,10,00,45,15.80
2014,07,10,00,46,15.80
2014,07,10,00,47,15.80
2014,07,10,00,48,15.80
2014,07,10,00,49,15.80
2014,07,10,00,50,15.80
2014,07,10,00,51,15.80
2014,07,10,00,52,15.80
2014,07,10,00,53,15.80
2014,07,10,00,54,15.80
2014,07,10,00,55,15.80
2014,07,10,00,56,15.80
2014,07,10,00,57,15.80
2014,07,10,00,58,15.80
2014,07,10,00,59,15.80
2014,07,10,01,00,15.80
2014,07,10,01,01,15.80
2014,07,10,01,02,15.80
2014,07,10,01,03,15.80
2014,07,10,01,04,15.70
2014,07,10,01,05,15.70
2014,07,10,01,06,15.70
2014,07,10,01,07,15.70
2014,07,10,01,08,15.70
2014,07,10,01,09,15.70
2014,07,10,01,10,15.70
2014,07,10,01,11,15.70
2014,07,10,01,12,15.70
2014,07,10,01,13,15.70
2014,07,10,01,14,15.60
2014,07,10,01,15,15.60
2014,07,10,01,16,15.60
2014,07,10,01,17,15.60
2014,07,10,01,18,15.60
2014,07,10,01,19,15.60
2014,07,10,01,20,15.50
2014,07,10,01,21,15.50
2014,07,10,01,22,15.50
2014,07,10,01,23,15.50
2014,07,10,01,24,15.40
2014,07,10,01,25,15.40
2014,07,10,01,26,15.40
2014,07,10,01,27,15.40
2014,07,10,01,28,15.40
2014,07,10,01,29,15.40
2014,07,10,01,30,15.40
2014,07,10,01,31,15.30
2014,07,10,01,32,15.30
2014,07,10,01,33,15.30
2014,07,10,01,34,15.30
2014,07,10,01,35,15.30
2014,07,10,01,36,15.30
2014,07,10,01,37,15.30
2014,07,10,01,38,15.30
2014,07,10,01,39,15.20
2014,07,10,01,40,15.20
2014,07,10,01,41,15.20
2014,07,10,01,42,15.20
2014,07,10,01,43,15.10
2014,07,10,01,44,15.10
2014,07,10,01,45,15.10
2014,07,10,01,46,15.10
2014,07,10,01,47,15.10
2014,07,10,01,48,15.00
2014,07,10,01,49,15.00
2014,07,10,01,50,14.90
2014,07,10,01,51,14.90
2014,07,10,01,52,14.90
2014,07,10,01,53,14.90
2014,07,10,01,54,14.90
2014,07,10,01,55,14.80
2014,07,10,01,56,14.80
2014,07,10,01,57,14.80
2014,07,10,01,58,14.80
2014,07,10,01,59,14.80
2014,07,10,02,00,14.80
2014,07,10,02,01,14.80
2014,07,10,02,02,14.70
2014,07,10,02,03,14.70
2014,07,10,02,04,14.70
2014,07,10,02,05,14.70
2014,07,10,02,06,14.70
2014,07,10,02,07,14.70
2014,07,10,02,08,14.70
2014,07,10,02,09,14.60
2014,07,10,02,10,14.60
2014,07,10,02,11,14.60
2014,07,10,02,12,14.60
2014,07,10,02,13,14.60
2014,07,10,02,14,14.60
2014,07,10,02,15,14.60
2014,07,10,02,16,14.50
2014,07,10,02,17,14.50
2014,07,10,02,18,14.50
2014,07,10,02,19,14.40
2014,07,10,02,20,14.40
2014,07,10,02,21,14.40
2014,07,10,02,22,14.40
2014,07,10,02,23,14.40
2014,07,10,02,24,14.30
2014,07,10,02,25,14.30
2014,07,10,02,26,14.30
2014,07,10,02,27,14.30
2014,07,10,02,28,14.30
2014,07,10,02,29,14.30
2014,07,10,02,30,14.30
2014,07,10,02,31,14.30
2014,07,10,02,32,14.30
2014,07,10,02,33,14.30
2014,07,10,02,34,14.30
2014,07,10,02,35,14.30
2014,07,10,02,36,14.30
2014,07,10,02,37,14.40
2014,07,10,02,38,14.40
2014,07,10,02,39,14.40
2014,07,10,02,40,14.40
2014,07,10,02,41,14.40
2014,07,10,02,42,14.40
2014,07,10,02,43,14.40
2014,07,10,02,44,14.40
2014,07,10,02,45,14.40
2014,07,10,02,46,14.40
2014,07,10,02,47,14.40
2014,07,10,02,48,14.40
2014,07,10,02,49,14.40
2014,07,10,02,50,14.40
2014,07,10,02,51,14.40
2014,07,10,02,52,14.40
2014,07,10,02,53,14.40
2014,07,10,02,54,14.40
2014,07,10,02,55,14.40
2014,07,10,02,56,14.40
2014,07,10,02,57,14.40
2014,07,10,02,58,14.40
2014,07,10,02,59,14.40
2014,07,10,03,00,14.40
2014,07,10,03,01,14.30
2014,07,10,03,02,14.30
2014,07,10,03,03,14.30
2014,07,10,03,04,14.30
2014,07,10,03,05,14.30
2014,07,10,03,06,14.30
2014,07,10,03,07,14.30
2014,07,10,03,08,14.20
2014,07,10,03,09,14.20
2014,07,10,03,10,14.20
2014,07,10,03,11,14.20
2014,07,10,03,12,14.20
2014,07,10,03,13,14.10
2014,07,10,03,14,14.10
2014,07,10,03,15,14.10
2014,07,10,03,16,14.10
2014,07,10,03,17,14.10
2014,07,10,03,18,14.10
2014,07,10,03,19,14.10
2014,07,10,03,20,14.00
2014,07,10,03,21,14.00
2014,07,10,03,22,14.00
2014,07,10,03,23,14.00
2014,07,10,03,24,13.90
2014,07,10,03,25,13.90
2014,07,10,03,26,13.90
2014,07,10,03,27,13.80
2014,07,10,03,28,13.80
2014,07,10,03,29,13.80
2014,07,10,03,30,13.80
2014,07,10,03,31,13.70
2014,07,10,03,32,13.70
2014,07,10,03,33,13.60
2014,07,10,03,34,13.60
2014,07,10,03,35,13.50
2014,07,10,03,36,13.50
2014,07,10,03,37,13.40
2014,07,10,03,38,13.40
2014,07,10,03,39,13.30
2014,07,10,03,40,13.30
2014,07,10,03,41,13.30
2014,07,10,03,42,13.20
2014,07,10,03,43,13.20
2014,07,10,03,44,13.10
2014,07,10,03,45,13.10
2014,07,10,03,46,13.10
2014,07,10,03,47,13.00
2014,07,10,03,48,13.00
2014,07,10,03,49,12.90
2014,07,10,03,50,12.90
2014,07,10,03,51,12.90
2014,07,10,03,52,12.80
2014,07,10,03,53,12.80
2014,07,10,03,54,12.80
2014,07,10,03,55,12.80
2014,07,10,03,56,12.80
2014,07,10,03,57,12.70
2014,07,10,03,58,12.70
2014,07,10,03,59,12.70
2014,07,10,04,00,12.60
2014,07,10,04,01,12.60
2014,07,10,04,02,12.60
2014,07,10,04,03,12.60
2014,07,10,04,04,12.50
2014,07,10,04,05,12.50
2014,07,10,04,06,12.40
2014,07,10,04,07,12.40
2014,07,10,04,08,12.40
2014,07,10,04,09,12.30
2014,07,10,04,10,12.30
2014,07,10,04,11,12.30
2014,07,10,04,12,12.20
2014,07,10,04,13,12.20
2014,07,10,04,14,12.20
2014,07,10,04,15,12.10
2014,07,10,04,16,12.10
2014,07,10,04,17,12.10
2014,07,10,04,18,12.00
2014,07,10,04,19,12.00
2014,07,10,04,20,12.00
2014,07,10,04,21,12.00
2014,07,10,04,22,12.00
2014,07,10,04,23,11.90
2014,07,10,04,24,11.90
2014,07,10,04,25,11.90
2014,07,10,04,26,11.90
2014,07,10,04,27,11.90
2014,07,10,04,28,11.90
2014,07,10,04,29,11.90
2014,07,10,04,30,11.80
2014,07,10,04,31,11.80
2014,07,10,04,32,11.80
2014,07,10,04,33,11.80
2014,07,10,04,34,11.80
2014,07,10,04,35,11.80
2014,07,10,04,36,11.80
2014,07,10,04,37,11.70
2014,07,10,04,38,11.70
2014,07,10,04,39,11.70
2014,07,10,04,40,11.70
2014,07,10,04,41,11.70
2014,07,10,04,42,11.60
2014,07,10,04,43,11.60
2014,07,10,04,44,11.60
2014,07,10,04,45,11.60
2014,07,10,04,46,11.50
2014,07,10,04,47,11.50
2014,07,10,04,48,11.50
2014,07,10,04,49,11.40
2014,07,10,04,50,11.40
2014,07,10,04,51,11.40
2014,07,10,04,52,11.40
2014,07,10,04,53,11.30
2014,07,10,04,54,11.30
2014,07,10,04,55,11.30
2014,07,10,04,56,11.30
2014,07,10,04,57,11.30
2014,07,10,04,58,11.20
2014,07,10,04,59,11.20
2014,07,10,05,00,11.20
2014,07,10,05,01,11.20
2014,07,10,05,02,11.20
2014,07,10,05,03,11.20
2014,07,10,05,04,11.20
2014,07,10,05,05,11.10
2014,07,10,05,06,11.10
2014,07,10,05,07,11.10
2014,07,10,05,08,11.10
2014,07,10,05,09,11.10
2014,07,10,05,10,11.10
2014,07,10,05,11,11.10
2014,07,10,05,12,11.10
2014,07,10,05,13,11.10
2014,07,10,05,14,11.10
2014,07,10,05,15,11.20
2014,07,10,05,16,11.20
2014,07,10,05,17,11.20
2014,07,10,05,18,11.20
2014,07,10,05,19,11.30
2014,07,10,05,20,11.30
2014,07,10,05,21,11.30
2014,07,10,05,22,11.30
2014,07,10,05,23,11.30
2014,07,10,05,24,11.30
2014,07,10,05,25,11.40
2014,07,10,05,26,11.40
2014,07,10,05,27,11.40
2014,07,10,05,28,11.40
2014,07,10,05,29,11.50
2014,07,10,05,30,11.50
2014,07,10,05,31,11.50
2014,07,10,05,32,11.50
2014,07,10,05,33,11.50
2014,07,10,05,34,11.60
2014,07,10,05,35,11.60
2014,07,10,05,36,11.60
2014,07,10,05,37,11.60
2014,07,10,05,38,11.60
2014,07,10,05,39,11.60
2014,07,10,05,40,11.60
2014,07,10,05,41,11.60
2014,07,10,05,42,11.70
2014,07,10,05,43,11.70
2014,07,10,05,44,11.70
2014,07,10,05,45,11.70
2014,07,10,05,46,11.70
2014,07,10,05,47,11.70
2014,07,10,05,48,11.70
2014,07,10,05,49,11.70
2014,07,10,05,50,11.70
2014,07,10,05,51,11.70
2014,07,10,05,52,11.70
2014,07,10,05,53,11.80
2014,07,10,05,54,11.80
2014,07,10,05,55,11.80
2014,07,10,05,56,11.80
2014,07,10,05,57,11.80
2014,07,10,05,58,11.80
2014,07,10,05,59,11.80
2014,07,10,06,00,11.70
2014,07,10,06,01,11.70
2014,07,10,06,02,11.70
2014,07,10,06,03,11.70
2014,07,10,06,04,11.70
2014,07,10,06,05,11.70
2014,07,10,06,06,11.70
2014,07,10,06,07,11.70
2014,07,10,06,08,11.70
2014,07,10,06,09,11.80
2014,07,10,06,10,11.80
2014,07,10,06,11,11.80
2014,07,10,06,12,11.90
2014,07,10,06,13,12.00
2014,07,10,06,14,12.00
2014,07,10,06,15,12.10
2014,07,10,06,16,12.20
2014,07,10,06,17,12.20
2014,07,10,06,18,12.30
2014,07,10,06,19,12.30
2014,07,10,06,20,12.40
2014,07,10,06,21,12.50
2014,07,10,06,22,12.50
2014,07,10,06,23,12.60
2014,07,10,06,24,12.60
2014,07,10,06,25,12.70
2014,07,10,06,26,12.70
2014,07,10,06,27,12.70
2014,07,10,06,28,12.80
2014,07,10,06,29,12.80
2014,07,10,06,30,12.80
2014,07,10,06,31,12.90
2014,07,10,06,32,12.90
2014,07,10,06,33,13.00
2014,07,10,06,34,13.00
2014,07,10,06,35,13.10
2014,07,10,06,36,13.20
2014,07,10,06,37,13.20
2014,07,10,06,38,13.20
2014,07,10,06,39,13.30
2014,07,10,06,40,13.30
2014,07,10,06,41,13.30
2014,07,10,06,42,13.40
2014,07,10,06,43,13.40
2014,07,10,06,44,13.40
2014,07,10,06,45,13.50
2014,07,10,06,46,13.60
2014,07,10,06,47,13.60
2014,07,10,06,48,13.60
2014,07,10,06,49,13.70
2014,07,10,06,50,13.70
2014,07,10,06,51,13.70
2014,07,10,06,52,13.70
2014,07,10,06,53,13.80
2014,07,10,06,54,13.80
2014,07,10,06,55,13.80
2014,07,10,06,56,13.80
2014,07,10,06,57,13.80
2014,07,10,06,58,13.80
2014,07,10,06,59,13.80
2014,07,10,07,00,13.90
2014,07,10,07,01,13.90
2014,07,10,07,02,13.90
2014,07,10,07,03,13.90
2014,07,10,07,04,13.90
2014,07,10,07,05,14.00
2014,07,10,07,06,14.00
2014,07,10,07,07,14.10
2014,07,10,07,08,14.10
2014,07,10,07,09,14.20
2014,07,10,07,10,14.20
2014,07,10,07,11,14.20
2014,07,10,07,12,14.30
2014,07,10,07,13,14.30
2014,07,10,07,14,14.30
2014,07,10,07,15,14.30
2014,07,10,07,16,14.40
2014,07,10,07,17,14.40
2014,07,10,07,18,14.40
2014,07,10,07,19,14.40
2014,07,10,07,20,14.40
2014,07,10,07,21,14.50
2014,07,10,07,22,14.50
2014,07,10,07,23,14.50
2014,07,10,07,24,14.60
2014,07,10,07,25,14.60
2014,07,10,07,26,14.70
2014,07,10,07,27,14.70
2014,07,10,07,28,14.70
2014,07,10,07,29,14.70
2014,07,10,07,30,14.80
2014,07,10,07,31,14.80
2014,07,10,07,32,14.80
2014,07,10,07,33,14.80
2014,07,10,07,34,14.80
2014,07,10,07,35,14.80
2014,07,10,07,36,14.90
2014,07,10,07,37,14.90
2014,07,10,07,38,14.90
2014,07,10,07,39,14.90
2014,07,10,07,40,14.90
2014,07,10,07,41,15.00
2014,07,10,07,42,15.00
2014,07,10,07,43,15.10
2014,07,10,07,44,15.10
2014,07,10,07,45,15.20
2014,07,10,07,46,15.20
2014,07,10,07,47,15.20
2014,07,10,07,48,15.20
2014,07,10,07,49,15.30
2014,07,10,07,50,15.30
2014,07,10,07,51,15.30
2014,07,10,07,52,15.30
2014,07,10,07,53,15.40
2014,07,10,07,54,15.40
2014,07,10,07,55,15.40
2014,07,10,07,56,15.40
2014,07,10,07,57,15.50
2014,07,10,07,58,15.50
2014,07,10,07,59,15.50
2014,07,10,08,00,15.60
2014,07,10,08,01,15.60
2014,07,10,08,02,15.60
2014,07,10,08,03,15.70
2014,07,10,08,04,15.70
2014,07,10,08,05,15.70
2014,07,10,08,06,15.80
2014,07,10,08,07,15.80
2014,07,10,08,08,15.90
2014,07,10,08,09,16.00
2014,07,10,08,10,16.00
2014,07,10,08,11,16.10
2014,07,10,08,12,16.10
2014,07,10,08,13,16.10
2014,07,10,08,14,16.10
2014,07,10,08,15,16.10
2014,07,10,08,16,16.10
2014,07,10,08,17,16.10
2014,07,10,08,18,16.10
2014,07,10,08,19,16.10
2014,07,10,08,20,16.10
2014,07,10,08,21,16.10
2014,07,10,08,22,16.20
2014,07,10,08,23,16.20
2014,07,10,08,24,16.20
2014,07,10,08,25,16.30
2014,07,10,08,26,16.30
2014,07,10,08,27,16.40
2014,07,10,08,28,16.50
2014,07,10,08,29,16.50
2014,07,10,08,30,16.50
2014,07,10,08,31,16.50
2014,07,10,08,32,16.50
2014,07,10,08,33,16.50
2014,07,10,08,34,16.60
2014,07,10,08,35,16.60
2014,07,10,08,36,16.60
2014,07,10,08,37,16.60
2014,07,10,08,38,16.60
2014,07,10,08,39,16.60
2014,07,10,08,40,16.50
2014,07,10,08,41,16.50
2014,07,10,08,42,16.50
2014,07,10,08,43,16.50
2014,07,10,08,44,16.50
2014,07,10,08,45,16.50
2014,07,10,08,46,16.40
2014,07,10,08,47,16.40
2014,07,10,08,48,16.40
2014,07,10,08,49,16.40
2014,07,10,08,50,16.40
2014,07,10,08,51,16.50
2014,07,10,08,52,16.50
2014,07,10,08,53,16.50
2014,07,10,08,54,16.50
2014,07,10,08,55,16.60
2014,07,10,08,56,16.60
2014,07,10,08,57,16.70
2014,07,10,08,58,16.70
2014,07,10,08,59,16.70
2014,07,10,09,00,16.70
2014,07,10,09,01,16.70
2014,07,10,09,02,16.70
2014,07,10,09,03,16.70
2014,07,10,09,04,16.70
2014,07,10,09,05,16.70
2014,07,10,09,06,16.60
2014,07,10,09,07,16.60
2014,07,10,09,08,16.60
2014,07,10,09,09,16.50
2014,07,10,09,10,16.50
2014,07,10,09,11,16.50
2014,07,10,09,12,16.50
2014,07,10,09,13,16.60
2014,07,10,09,14,16.60
2014,07,10,09,15,16.60
2014,07,10,09,16,16.60
2014,07,10,09,17,16.60
2014,07,10,09,18,16.60
2014,07,10,09,19,16.60
2014,07,10,09,20,16.60
2014,07,10,09,21,16.50
2014,07,10,09,22,16.50
2014,07,10,09,23,16.50
2014,07,10,09,24,16.50
2014,07,10,09,25,16.50
2014,07,10,09,26,16.60
2014,07,10,09,27,16.60
2014,07,10,09,28,16.60
2014,07,10,09,29,16.70
2014,07,10,09,30,16.80
2014,07,10,09,31,16.80
2014,07,10,09,32,16.80
2014,07,10,09,33,16.80
2014,07,10,09,34,16.90
2014,07,10,09,35,16.90
2014,07,10,09,36,16.90
2014,07,10,09,37,16.90
2014,07,10,09,38,16.90
2014,07,10,09,39,16.90
2014,07,10,09,40,16.90
2014,07,10,09,41,17.00
2014,07,10,09,42,17.00
2014,07,10,09,43,17.10
2014,07,10,09,44,17.10
2014,07,10,09,45,17.20
2014,07,10,09,46,17.20
2014,07,10,09,47,17.30
2014,07,10,09,48,17.20
2014,07,10,09,49,17.20
2014,07,10,09,50,17.20
2014,07,10,09,51,17.20
2014,07,10,09,52,17.10
2014,07,10,09,53,17.10
2014,07,10,09,54,17.20
2014,07,10,09,55,17.20
2014,07,10,09,56,17.20
2014,07,10,09,57,17.20
2014,07,10,09,58,17.20
2014,07,10,09,59,17.30
2014,07,10,10,00,17.30
2014,07,10,10,01,17.40
2014,07,10,10,02,17.40
2014,07,10,10,03,17.40
2014,07,10,10,04,17.50
2014,07,10,10,05,17.50
2014,07,10,10,06,17.50
2014,07,10,10,07,17.40
2014,07,10,10,08,17.40
2014,07,10,10,09,17.30
2014,07,10,10,10,17.30
2014,07,10,10,11,17.40
2014,07,10,10,12,17.40
2014,07,10,10,13,17.30
2014,07,10,10,14,17.30
2014,07,10,10,15,17.40
2014,07,10,10,16,17.50
2014,07,10,10,17,17.50
2014,07,10,10,18,17.60
2014,07,10,10,19,17.60
2014,07,10,10,20,17.50
2014,07,10,10,21,17.60
2014,07,10,10,22,17.60
2014,07,10,10,23,17.70
2014,07,10,10,24,17.70
2014,07,10,10,25,17.70
2014,07,10,10,26,17.70
2014,07,10,10,27,17.80
2014,07,10,10,28,17.80
2014,07,10,10,29,17.90
2014,07,10,10,30,18.00
2014,07,10,10,31,18.00
2014,07,10,10,32,18.00
2014,07,10,10,33,18.00
2014,07,10,10,34,18.00
2014,07,10,10,35,18.00
2014,07,10,10,36,18.10
2014,07,10,10,37,18.10
2014,07,10,10,38,18.20
2014,07,10,10,39,18.10
2014,07,10,10,40,18.10
2014,07,10,10,41,18.00
2014,07,10,10,42,18.00
2014,07,10,10,43,17.90
2014,07,10,10,44,18.00
2014,07,10,10,45,18.00
2014,07,10,10,46,18.10
2014,07,10,10,47,18.20
2014,07,10,10,48,18.30
2014,07,10,10,49,18.30
2014,07,10,10,50,18.40
2014,07,10,10,51,18.40
2014,07,10,10,52,18.40
2014,07,10,10,53,18.40
2014,07,10,10,54,18.50
2014,07,10,10,55,18.50
2014,07,10,10,56,18.40
2014,07,10,10,57,18.40
2014,07,10,10,58,18.40
2014,07,10,10,59,18.50
2014,07,10,11,00,18.60
2014,07,10,11,01,18.60
2014,07,10,11,02,18.70
2014,07,10,11,03,18.70
2014,07,10,11,04,18.70
2014,07,10,11,05,18.60
2014,07,10,11,06,18.60
2014,07,10,11,07,18.50
2014,07,10,11,08,18.50
2014,07,10,11,09,18.50
2014,07,10,11,10,18.50
2014,07,10,11,11,18.50
2014,07,10,11,12,18.50
2014,07,10,11,13,18.40
2014,07,10,11,14,18.40
2014,07,10,11,15,18.40
2014,07,10,11,16,18.40
2014,07,10,11,17,18.40
2014,07,10,11,18,18.50
2014,07,10,11,19,18.50
2014,07,10,11,20,18.50
2014,07,10,11,21,18.50
2014,07,10,11,22,18.60
2014,07,10,11,23,18.60
2014,07,10,11,24,18.70
2014,07,10,11,25,18.80
2014,07,10,11,26,18.80
2014,07,10,11,27,18.80
2014,07,10,11,28,18.80
2014,07,10,11,29,18.70
2014,07,10,11,30,18.70
2014,07,10,11,31,18.70
2014,07,10,11,32,18.70
2014,07,10,11,33,18.70
2014,07,10,11,34,18.70
2014,07,10,11,35,18.70
2014,07,10,11,36,18.80
2014,07,10,11,37,18.90
2014,07,10,11,38,18.90
2014,07,10,11,39,18.90
2014,07,10,11,40,18.80
2014,07,10,11,41,18.80
2014,07,10,11,42,18.80
2014,07,10,11,43,18.80
2014,07,10,11,44,18.80
2014,07,10,11,45,18.80
2014,07,10,11,46,18.90
2014,07,10,11,47,19.00
2014,07,10,11,48,19.10
2014,07,10,11,49,19.10
2014,07,10,11,50,19.20
2014,07,10,11,51,19.20
2014,07,10,11,52,19.20
2014,07,10,11,53,19.20
2014,07,10,11,54,19.20
2014,07,10,11,55,19.20
2014,07,10,11,56,19.30
2014,07,10,11,57,19.30
2014,07,10,11,58,19.40
2014,07,10,11,59,19.40
2014,07,10,12,00,19.40
2014,07,10,12,01,19.40
2014,07,10,12,02,19.40
2014,07,10,12,03,19.50
2014,07,10,12,04,19.50
2014,07,10,12,05,19.60
2014,07,10,12,06,19.60
2014,07,10,12,07,19.60
2014,07,10,12,08,19.70
2014,07,10,12,09,19.80
2014,07,10,12,10,19.90
2014,07,10,12,11,20.00
2014,07,10,12,12,20.00
2014,07,10,12,13,20.00
2014,07,10,12,14,20.00
2014,07,10,12,15,20.00
2014,07,10,12,16,20.00
2014,07,10,12,17,20.00
2014,07,10,12,18,20.10
2014,07,10,12,19,20.10
2014,07,10,12,20,20.20
2014,07,10,12,21,20.20
2014,07,10,12,22,20.20
2014,07,10,12,23,20.30
2014,07,10,12,24,20.30
2014,07,10,12,25,20.40
2014,07,10,12,26,20.50
2014,07,10,12,27,20.50
2014,07,10,12,28,20.50
2014,07,10,12,29,20.50
2014,07,10,12,30,20.50
2014,07,10,12,31,20.50
2014,07,10,12,32,20.40
2014,07,10,12,33,20.40
2014,07,10,12,34,20.40
2014,07,10,12,35,20.50
2014,07,10,12,36,20.50
2014,07,10,12,37,20.50
2014,07,10,12,38,20.50
2014,07,10,12,39,20.50
2014,07,10,12,40,20.50
2014,07,10,12,41,20.60
2014,07,10,12,42,20.60
2014,07,10,12,43,20.60
2014,07,10,12,44,20.60
2014,07,10,12,45,20.60
2014,07,10,12,46,20.60
2014,07,10,12,47,20.60
2014,07,10,12,48,20.60
2014,07,10,12,49,20.60
2014,07,10,12,50,20.70
2014,07,10,12,51,20.70
2014,07,10,12,52,20.70
2014,07,10,12,53,20.70
2014,07,10,12,54,20.70
2014,07,10,12,55,20.70
2014,07,10,12,56,20.70
2014,07,10,12,57,20.80
2014,07,10,12,58,20.80
2014,07,10,12,59,20.80
2014,07,10,13,00,20.90
2014,07,10,13,01,20.90
2014,07,10,13,02,20.90
2014,07,10,13,03,20.90
2014,07,10,13,04,20.90
2014,07,10,13,05,20.90
2014,07,10,13,06,20.80
2014,07,10,13,07,20.80
2014,07,10,13,08,20.70
2014,07,10,13,09,20.70
2014,07,10,13,10,20.70
2014,07,10,13,11,20.80
2014,07,10,13,12,20.90
2014,07,10,13,13,21.00
2014,07,10,13,14,21.10
2014,07,10,13,15,21.20
2014,07,10,13,16,21.20
2014,07,10,13,17,21.20
2014,07,10,13,18,21.20
2014,07,10,13,19,21.20
2014,07,10,13,20,21.10
2014,07,10,13,21,21.10
2014,07,10,13,22,21.10
2014,07,10,13,23,21.10
2014,07,10,13,24,21.20
2014,07,10,13,25,21.30
2014,07,10,13,26,21.40
2014,07,10,13,27,21.40
2014,07,10,13,28,21.40
2014,07,10,13,29,21.40
2014,07,10,13,30,21.50
2014,07,10,13,31,21.50
2014,07,10,13,32,21.50
2014,07,10,13,33,21.50
2014,07,10,13,34,21.60
2014,07,10,13,35,21.70
2014,07,10,13,36,21.80
2014,07,10,13,37,21.80
2014,07,10,13,38,21.90
2014,07,10,13,39,21.90
2014,07,10,13,40,21.90
2014,07,10,13,41,21.90
2014,07,10,13,42,21.90
2014,07,10,13,43,21.90
2014,07,10,13,44,21.90
2014,07,10,13,45,22.00
2014,07,10,13,46,22.00
2014,07,10,13,47,22.00
2014,07,10,13,48,22.00
2014,07,10,13,49,22.00
2014,07,10,13,50,22.00
2014,07,10,13,51,22.00
2014,07,10,13,52,22.10
2014,07,10,13,53,22.10
2014,07,10,13,54,22.10
2014,07,10,13,55,22.10
2014,07,10,13,56,22.00
2014,07,10,13,57,22.10
2014,07,10,13,58,22.10
2014,07,10,13,59,22.00
2014,07,10,14,00,21.90
2014,07,10,14,01,21.80
2014,07,10,14,02,21.70
2014,07,10,14,03,21.70
2014,07,10,14,04,21.60
2014,07,10,14,05,21.70
2014,07,10,14,06,21.70
2014,07,10,14,07,21.80
2014,07,10,14,08,21.80
2014,07,10,14,09,21.90
2014,07,10,14,10,22.00
2014,07,10,14,11,22.00
2014,07,10,14,12,22.00
2014,07,10,14,13,22.00
2014,07,10,14,14,22.00
2014,07,10,14,15,22.10
2014,07,10,14,16,22.10
2014,07,10,14,17,22.20
2014,07,10,14,18,22.20
2014,07,10,14,19,22.20
2014,07,10,14,20,22.20
2014,07,10,14,21,22.20
2014,07,10,14,22,22.30
2014,07,10,14,23,22.40
2014,07,10,14,24,22.50
2014,07,10,14,25,22.60
2014,07,10,14,26,22.70
2014,07,10,14,27,22.80
2014,07,10,14,28,22.90
2014,07,10,14,29,23.00
2014,07,10,14,30,23.00
2014,07,10,14,31,23.00
2014,07,10,14,32,23.00
2014,07,10,14,33,23.00
2014,07,10,14,34,22.90
2014,07,10,14,35,22.90
2014,07,10,14,36,22.80
2014,07,10,14,37,22.80
2014,07,10,14,38,22.80
2014,07,10,14,39,22.80
2014,07,10,14,40,22.80
2014,07,10,14,41,22.70
2014,07,10,14,42,22.70
2014,07,10,14,43,22.70
2014,07,10,14,44,22.70
2014,07,10,14,45,22.80
2014,07,10,14,46,22.80
2014,07,10,14,47,22.80
2014,07,10,14,48,22.90
2014,07,10,14,49,23.00
2014,07,10,14,50,23.10
2014,07,10,14,51,23.10
2014,07,10,14,52,23.10
2014,07,10,14,53,23.20
2014,07,10,14,54,23.20
2014,07,10,14,55,23.20
2014,07,10,14,56,23.30
2014,07,10,14,57,23.40
2014,07,10,14,58,23.50
2014,07,10,14,59,23.50
2014,07,10,15,00,23.50
2014,07,10,15,01,23.40
2014,07,10,15,02,23.40
2014,07,10,15,03,23.40
2014,07,10,15,04,23.40
2014,07,10,15,05,23.50
2014,07,10,15,06,23.60
2014,07,10,15,07,23.70
2014,07,10,15,08,23.70
2014,07,10,15,09,23.80
2014,07,10,15,10,23.90
2014,07,10,15,11,23.90
2014,07,10,15,12,23.90
2014,07,10,15,13,24.00
2014,07,10,15,14,24.00
2014,07,10,15,15,24.00
2014,07,10,15,16,23.90
2014,07,10,15,17,23.80
2014,07,10,15,18,23.80
2014,07,10,15,19,23.80
2014,07,10,15,20,23.80
2014,07,10,15,21,23.70
2014,07,10,15,22,23.70
2014,07,10,15,23,23.70
2014,07,10,15,24,23.60
2014,07,10,15,25,23.60
2014,07,10,15,26,23.60
2014,07,10,15,27,23.60
2014,07,10,15,28,23.60
2014,07,10,15,29,23.60
2014,07,10,15,30,23.50
2014,07,10,15,31,23.50
2014,07,10,15,32,23.60
2014,07,10,15,33,23.60
2014,07,10,15,34,23.60
2014,07,10,15,35,23.70
2014,07,10,15,36,23.70
2014,07,10,15,37,23.80
2014,07,10,15,38,23.80
2014,07,10,15,39,23.80
2014,07,10,15,40,23.80
2014,07,10,15,41,23.90
2014,07,10,15,42,23.90
2014,07,10,15,43,24.00
2014,07,10,15,44,24.10
2014,07,10,15,45,24.10
2014,07,10,15,46,24.20
2014,07,10,15,47,24.20
2014,07,10,15,48,24.20
2014,07,10,15,49,24.20
2014,07,10,15,50,24.20
2014,07,10,15,51,24.20
2014,07,10,15,52,24.20
2014,07,10,15,53,24.30
2014,07,10,15,54,24.30
2014,07,10,15,55,24.30
2014,07,10,15,56,24.30
2014,07,10,15,57,24.40
2014,07,10,15,58,24.40
2014,07,10,15,59,24.40
2014,07,10,16,00,24.40
2014,07,10,16,01,24.50
2014,07,10,16,02,24.50
2014,07,10,16,03,24.40
2014,07,10,16,04,24.40
2014,07,10,16,05,24.40
2014,07,10,16,06,24.40
2014,07,10,16,07,24.40
2014,07,10,16,08,24.30
2014,07,10,16,09,24.30
2014,07,10,16,10,24.30
2014,07,10,16,11,24.30
2014,07,10,16,12,24.30
2014,07,10,16,13,24.40
2014,07,10,16,14,24.40
2014,07,10,16,15,24.50
2014,07,10,16,16,24.60
2014,07,10,16,17,24.50
2014,07,10,16,18,24.40
2014,07,10,16,19,24.40
2014,07,10,16,20,24.40
2014,07,10,16,21,24.30
2014,07,10,16,22,24.30
2014,07,10,16,23,24.30
2014,07,10,16,24,24.40
2014,07,10,16,25,24.40
2014,07,10,16,26,24.50
2014,07,10,16,27,24.50
2014,07,10,16,28,24.50
2014,07,10,16,29,24.60
2014,07,10,16,30,24.60
2014,07,10,16,31,24.70
2014,07,10,16,32,24.70
2014,07,10,16,33,24.80
2014,07,10,16,34,24.70
2014,07,10,16,35,24.70
2014,07,10,16,36,24.70
2014,07,10,16,37,24.60
2014,07,10,16,38,24.60
2014,07,10,16,39,24.60
2014,07,10,16,40,24.60
2014,07,10,16,41,24.60
2014,07,10,16,42,24.60
2014,07,10,16,43,24.70
2014,07,10,16,44,24.70
2014,07,10,16,45,24.80
2014,07,10,16,46,24.80
2014,07,10,16,47,24.80
2014,07,10,16,48,24.70
2014,07,10,16,49,24.60
2014,07,10,16,50,24.60
2014,07,10,16,51,24.60
2014,07,10,16,52,24.60
2014,07,10,16,53,24.60
2014,07,10,16,54,24.60
2014,07,10,16,55,24.60
2014,07,10,16,56,24.60
2014,07,10,16,57,24.60
2014,07,10,16,58,24.60
2014,07,10,16,59,24.50
2014,07,10,17,00,24.50
2014,07,10,17,01,24.50
2014,07,10,17,02,24.50
2014,07,10,17,03,24.60
2014,07,10,17,04,24.60
2014,07,10,17,05,24.70
2014,07,10,17,06,24.70
2014,07,10,17,07,24.80
2014,07,10,17,08,24.70
2014,07,10,17,09,24.70
2014,07,10,17,10,24.70
2014,07,10,17,11,24.70
2014,07,10,17,12,24.70
2014,07,10,17,13,24.80
2014,07,10,17,14,24.80
2014,07,10,17,15,24.80
2014,07,10,17,16,24.90
2014,07,10,17,17,24.90
2014,07,10,17,18,25.00
2014,07,10,17,19,25.00